This is the latest recevied weather packets stored in our database for station/object NR6G-5. If no packets are shown the sender has not sent any weather packets the latest 10 day(s).
| Time | Temp. | Humidity | Pressure | Rain* | Wind** | Luminosity | Snow |
|---|---|---|---|---|---|---|---|
| 1777697085 | 22.22° C | 50% | 1010 hPa | 0 mm | - | - | - |
| 1777696786 | 22.22° C | 50% | 1010 hPa | 0 mm | - | - | - |
| 1777696485 | 22.78° C | 48% | 1009.9 hPa | 0 mm | - | - | - |
| 1777696186 | 23.33° C | 47% | 1009.9 hPa | 0 mm | - | - | - |
| 1777695886 | 23.33° C | 47% | 1009.8 hPa | 0 mm | - | - | - |
| 1777695586 | 22.78° C | 49% | 1009.8 hPa | 0 mm | - | - | - |
| 1777695285 | 22.22° C | 51% | 1009.7 hPa | 0 mm | - | - | - |
| 1777694985 | 22.78° C | 50% | 1009.7 hPa | 0 mm | - | - | - |
| 1777694386 | 23.33° C | 48% | 1009.6 hPa | 0 mm | - | - | - |
| 1777693785 | 22.78° C | 48% | 1009.4 hPa | 0 mm | - | - | - |
| 1777693485 | 23.33° C | 48% | 1009.4 hPa | 0 mm | - | - | - |
| 1777693185 | 23.33° C | 47% | 1009.3 hPa | 0 mm | - | - | - |
| 1777692596 | 23.89° C | 46% | 1009.1 hPa | 0 mm | - | - | - |
| 1777692296 | 23.89° C | 48% | 1009.1 hPa | 0 mm | - | - | - |
| 1777691997 | 24.44° C | 48% | 1008.9 hPa | 0 mm | - | - | - |
| 1777691696 | 24.44° C | 42% | 1008.9 hPa | 0 mm | - | - | - |
| 1777691396 | 25° C | 42% | 1008.8 hPa | 0 mm | - | - | - |
| 1777691096 | 25° C | 43% | 1008.7 hPa | 0 mm | - | - | - |
| 1777690796 | 25.56° C | 38% | 1008.7 hPa | 0 mm | - | - | - |
| 1777690496 | 26.11° C | 41% | 1008.7 hPa | 0 mm | - | - | - |
| 1777690197 | 26.67° C | 37% | 1008.6 hPa | 0 mm | - | - | - |
| 1777689897 | 27.22° C | 34% | 1008.6 hPa | 0 mm | - | - | - |
| 1777689596 | 27.22° C | 35% | 1008.6 hPa | 0 mm | - | - | - |
| 1777688997 | 27.78° C | 34% | 1008.6 hPa | 0 mm | - | - | - |
| 1777688696 | 28.33° C | 33% | 1008.5 hPa | 0 mm | - | - | - |
* Rain latest hour (hover to see other rain measurements)
** Current wind speed in m/s (hover to see current wind gust speed)